N9OJR Weather Reports


Display with metric or nautical units.
time (UTC)temp
F
wind
direction
speed
MPH
gust
MPH
rain 1hr
in
rain 24hr
in
rain mn
in
humidity
%
barometer
mb
20260503234037 56 263 1.0 1.0 0.00 0.00 0.00 49 1009.2
20260503233533 56 212 1.0 3.0 0.00 0.00 0.00 49 1009.0
20260503233029 56 225 1.0 2.0 0.00 0.00 0.00 49 1009.0
20260503232527 56 251 0.0 2.0 0.00 0.00 0.00 49 1009.2
20260503232024 57 263 1.0 5.0 0.00 0.00 0.00 48 1009.3
20260503231522 57 312 3.0 5.0 0.00 0.00 0.00 48 1009.1
20260503231018 57 248 2.0 3.0 0.00 0.00 0.00 48 1009.3
20260503230515 57 298 1.0 2.0 0.00 0.00 0.00 49 1009.2
20260503230013 57 182 1.0 1.0 0.00 0.00 0.00 49 1009.2
20260503225509 57 176 2.0 3.0 0.00 0.00 0.00 47 1009.2
20260503225004 58 242 1.0 7.0 0.00 0.00 0.00 46 1009.3
20260503224502 58 158 2.0 6.0 0.00 0.00 0.00 46 1009.3
20260503224000 57 302 1.0 7.0 0.00 0.00 0.00 47 1009.6
20260503223457 57 119 2.0 9.0 0.00 0.00 0.00 48 1009.3
20260503222952 57 358 5.0 7.0 0.00 0.00 0.00 47 1009.5
20260503222451 57 149 2.0 6.0 0.00 0.00 0.00 47 1009.6
20260503221949 57 112 1.0 8.0 0.00 0.00 0.00 47 1009.6
20260503221447 58 325 2.0 5.0 0.00 0.00 0.00 47 1009.6
20260503220944 59 228 2.0 2.0 0.00 0.00 0.00 47 1009.5
20260503220440 59 140 1.0 5.0 0.00 0.00 0.00 47 1009.7
20260503215937 59 234 2.0 6.0 0.00 0.00 0.00 45 1009.5
20260503215434 59 284 2.0 6.0 0.00 0.00 0.00 47 1009.5
20260503214932 59 317 3.0 10.0 0.00 0.00 0.00 44 1009.5
20260503214429 59 291 2.0 5.0 0.00 0.00 0.00 44 1009.3
20260503213926 59 125 1.0 5.0 0.00 0.00 0.00 46 1009.5
20260503213425 59 113 2.0 5.0 0.00 0.00 0.00 44 1009.6
20260503212920 60 37 3.0 5.0 0.00 0.00 0.00 47 1009.4
20260503212418 60 193 3.0 5.0 0.00 0.00 0.00 44 1009.4
20260503211915 59 61 3.0 5.0 0.00 0.00 0.00 45 1009.5
20260503211412 59 281 3.0 6.0 0.00 0.00 0.00 43 1009.5
20260503210907 59 301 2.0 3.0 0.00 0.00 0.00 46 1009.6
20260503210405 60 77 2.0 8.0 0.00 0.00 0.00 44 1009.5
20260503205859 60 329 1.0 6.0 0.00 0.00 0.00 44 1009.7
20260503205356 60 266 1.0 5.0 0.00 0.00 0.00 46 1009.8
20260503204853 60 341 2.0 8.0 0.00 0.00 0.00 43 1009.5
20260503204350 59 161 3.0 8.0 0.00 0.00 0.00 44 1009.6
20260503203847 59 332 3.0 6.0 0.00 0.00 0.00 45 1009.6
20260503203344 60 295 3.0 5.0 0.00 0.00 0.00 44 1009.7
20260503202841 60 300 4.0 8.0 0.00 0.00 0.00 43 1009.8
20260503202339 61 297 4.0 8.0 0.00 0.00 0.00 42 1009.8
20260503201838 62 130 3.0 9.0 0.00 0.00 0.00 45 1010.0
20260503201334 60 279 0.0 3.0 0.00 0.00 0.00 47 1009.7
20260503200832 60 213 3.0 7.0 0.00 0.00 0.00 45 1010.0
20260503200327 60 274 1.0 3.0 0.00 0.00 0.00 45 1009.8
20260503195825 60 258 2.0 6.0 0.00 0.00 0.00 43 1010.2
20260503195321 59 253 1.0 7.0 0.00 0.00 0.00 45 1010.1
20260503194819 59 13 4.0 8.0 0.00 0.00 0.00 45 1010.3
20260503194314 59 242 3.0 6.0 0.00 0.00 0.00 46 1010.5
20260503193811 59 347 1.0 3.0 0.00 0.00 0.00 46 1010.7
20260503193307 61 308 2.0 7.0 0.00 0.00 0.00 43 1010.2
20260503192803 60 57 4.0 6.0 0.00 0.00 0.00 44 1010.7
20260503192258 59 92 1.0 2.0 0.00 0.00 0.00 46 1011.0
20260503191755 60 306 4.0 6.0 0.00 0.00 0.00 43 1010.9
20260503191252 60 256 1.0 2.0 0.00 0.00 0.00 43 1010.8
20260503190749 59 166 2.0 5.0 0.00 0.00 0.00 48 1011.1
20260503190246 59 306 5.0 7.0 0.00 0.00 0.00 45 1011.1
20260503185743 60 187 3.0 7.0 0.00 0.00 0.00 44 1011.2
20260503185238 61 202 1.0 7.0 0.00 0.00 0.00 45 1011.1
20260503184733 60 307 2.0 6.0 0.00 0.00 0.00 48 1011.3
20260503184230 60 0 2.0 8.0 0.00 0.00 0.00 45 1011.3
20260503183726 59 0 3.0 6.0 0.00 0.00 0.00 45 1011.5
20260503183223 60 103 3.0 8.0 0.00 0.00 0.00 43 1011.4
20260503182721 60 17 3.0 6.0 0.00 0.00 0.00 44 1011.6
20260503182220 60 245 1.0 6.0 0.00 0.00 0.00 44 1011.6
20260503181716 60 291 2.0 8.0 0.00 0.00 0.00 43 1011.8
20260503181213 61 94 4.0 6.0 0.00 0.00 0.00 47 1011.5
20260503180709 59 67 2.0 6.0 0.00 0.00 0.00 49 1011.5
20260503180208 60 222 1.0 11.0 0.00 0.00 0.00 46 1011.5
20260503175704 59 291 3.0 5.0 0.00 0.00 0.00 43 1011.7
20260503175202 60 196 0.0 6.0 0.00 0.00 0.00 47 1011.7
20260503174658 60 250 3.0 5.0 0.00 0.00 0.00 46 1012.0
20260503174156 60 320 4.0 6.0 0.00 0.00 0.00 47 1012.0
20260503173651 59 215 1.0 5.0 0.00 0.00 0.00 51 1011.7
20260503173147 58 202 2.0 5.0 0.00 0.00 0.00 48 1011.9
20260503172644 59 263 1.0 3.0 0.00 0.00 0.00 47 1012.0
20260503172141 58 134 3.0 7.0 0.00 0.00 0.00 47 1012.1
20260503171637 58 325 6.0 7.0 0.00 0.00 0.00 46 1012.0
20260503171135 59 281 1.0 6.0 0.00 0.00 0.00 47 1012.1
20260503170632 58 288 2.0 8.0 0.00 0.00 0.00 48 1012.2
20260503170129 59 213 3.0 10.0 0.00 0.00 0.00 47 1012.4
20260503150520 53 259 0.0 3.0 0.00 0.00 0.00 58 1013.2
20260503131413 46 222 1.0 2.0 0.00 0.00 0.00 67 1013.8
20260503130910 46 288 0.0 2.0 0.00 0.00 0.00 66 1013.9
20260503130408 46 312 2.0 2.0 0.00 0.00 0.00 66 1013.9
20260503110811 31 264 0.0 0.0 0.00 0.00 0.00 99 1013.1
20260503110308 31 264 0.0 0.0 0.00 0.00 0.00 99 1013.2
20260503100234 29 268 0.0 0.0 0.00 0.00 0.00 99 1012.8
20260503090159 30 268 0.0 0.0 0.00 0.00 0.00 99 1013.0
20260503081636 30 268 0.0 0.0 0.00 0.00 0.00 99 1012.8
20260503081132 31 268 0.0 0.0 0.00 0.00 0.00 99 1013.1
20260503080628 30 268 0.0 0.0 0.00 0.00 0.00 99 1012.8
20260503080125 30 268 0.0 0.0 0.00 0.00 0.00 99 1012.9
20260503072602 31 268 0.0 0.0 0.00 0.00 0.00 98 1012.8
20260503072059 32 268 0.0 0.0 0.00 0.00 0.00 97 1012.9
20260503071556 32 268 0.0 0.0 0.00 0.00 0.00 97 1012.9
20260503071053 32 268 0.0 0.0 0.00 0.00 0.00 97 1013.1
20260503070549 32 268 0.0 0.0 0.00 0.00 0.00 97 1013.0
20260503055003 36 286 0.0 0.0 0.00 0.00 0.00 90 1012.9
20260503054458 37 281 0.0 0.0 0.00 0.00 0.00 89 1013.1
20260503053956 37 265 0.0 0.0 0.00 0.00 0.00 89 1013.2
20260503053454 37 276 0.0 0.0 0.00 0.00 0.00 88 1013.2
20260503052950 37 254 0.0 1.0 0.00 0.00 0.00 87 1013.1
20260503052448 38 273 0.0 0.0 0.00 0.00 0.00 86 1013.2
20260503051944 38 280 0.0 1.0 0.00 0.00 0.00 86 1013.0
20260503051440 39 274 0.0 1.0 0.00 0.00 0.00 85 1013.1
20260503050938 39 223 0.0 1.0 0.00 0.00 0.00 85 1013.0
20260503050433 39 284 0.0 1.0 0.00 0.00 0.00 86 1013.1
20260503045931 39 327 0.0 1.0 0.00 0.00 0.00 86 1013.2
20260503045429 39 272 0.0 0.0 0.00 0.00 0.00 86 1013.2
20260503044925 39 276 0.0 1.0 0.00 0.00 0.00 86 1013.1
20260503044422 39 269 0.0 0.0 0.00 0.00 0.00 86 1013.1
20260503043920 39 283 0.0 1.0 0.00 0.00 0.00 86 1013.2
20260503043416 39 224 1.0 1.0 0.00 0.00 0.00 86 1013.1
20260503042912 39 296 0.0 0.0 0.00 0.00 0.00 86 1013.1
20260503042409 39 279 0.0 0.0 0.00 0.00 0.00 87 1013.1
20260503041905 39 294 0.0 0.0 0.00 0.00 0.00 87 1013.1
20260503041402 38 293 0.0 0.0 0.00 0.00 0.00 87 1013.3
20260503040900 38 293 0.0 0.0 0.00 0.00 0.00 88 1013.3
20260503040357 38 294 0.0 0.0 0.00 0.00 0.00 88 1013.3
20260503035854 38 294 0.0 0.0 0.00 0.00 0.00 89 1013.2
20260503035351 38 295 0.0 0.0 0.00 0.00 0.00 89 1013.3
20260503034848 38 294 0.0 0.0 0.00 0.00 0.00 89 1013.3
20260503034346 38 294 0.0 0.0 0.00 0.00 0.00 89 1013.2
20260503033843 38 294 0.0 0.0 0.00 0.00 0.00 89 1013.3
20260503033340 38 294 0.0 0.0 0.00 0.00 0.00 89 1013.5
20260503032838 38 295 0.0 0.0 0.00 0.00 0.00 88 1013.4
20260503032337 38 295 0.0 0.0 0.00 0.00 0.00 88 1013.4
20260503031834 38 295 0.0 0.0 0.00 0.00 0.00 87 1013.4
20260503031332 38 295 0.0 0.0 0.00 0.00 0.00 87 1013.4
20260503030828 38 295 0.0 0.0 0.00 0.00 0.00 87 1013.2
20260503030324 38 295 0.0 0.0 0.00 0.00 0.00 86 1013.7
20260503025821 38 295 0.0 0.0 0.00 0.00 0.00 86 1013.3
20260503025319 38 295 0.0 0.0 0.00 0.00 0.00 86 1013.5
20260503024815 38 295 0.0 0.0 0.00 0.00 0.00 87 1013.7
20260503024312 38 295 0.0 0.0 0.00 0.00 0.00 86 1013.5
20260503023809 38 295 0.0 0.0 0.00 0.00 0.00 86 1013.9
20260503023307 38 295 0.0 0.0 0.00 0.00 0.00 86 1013.8
20260503022803 38 295 0.0 0.0 0.00 0.00 0.00 87 1013.8
20260503022304 38 295 0.0 0.0 0.00 0.00 0.00 87 1013.9
20260503021759 38 295 0.0 0.0 0.00 0.00 0.00 86 1013.7
20260503021255 38 295 0.0 0.0 0.00 0.00 0.00 86 1013.8
20260503020753 38 295 0.0 0.0 0.00 0.00 0.00 86 1013.7
20260503020251 38 295 0.0 0.0 0.00 0.00 0.00 86 1013.8
20260503015747 38 295 0.0 0.0 0.00 0.00 0.00 86 1013.9
20260503015244 38 295 0.0 0.0 0.00 0.00 0.00 86 1013.5
20260503014739 38 295 0.0 0.0 0.00 0.00 0.00 86 1013.4
20260503014238 38 295 0.0 0.0 0.00 0.00 0.00 85 1013.7
20260503013735 38 295 0.0 0.0 0.00 0.00 0.00 84 1013.7
20260503013232 38 295 0.0 0.0 0.00 0.00 0.00 84 1013.7
20260503012730 38 295 0.0 0.0 0.00 0.00 0.00 84 1013.5
20260503012226 39 295 0.0 0.0 0.00 0.00 0.00 83 1013.5
20260503011723 39 295 0.0 0.0 0.00 0.00 0.00 83 1013.8
20260503011220 39 295 0.0 0.0 0.00 0.00 0.00 82 1013.5
20260503010716 39 295 0.0 0.0 0.00 0.00 0.00 80 1013.3
20260503010213 39 295 0.0 0.0 0.00 0.00 0.00 79 1013.4
20260503005711 39 295 0.0 0.0 0.00 0.00 0.00 79 1013.4
20260503005208 40 295 0.0 0.0 0.00 0.00 0.00 78 1013.4
20260503004704 40 295 0.0 0.0 0.00 0.00 0.00 77 1013.4
20260503004203 40 295 0.0 0.0 0.00 0.00 0.00 76 1013.4
20260503003659 40 295 0.0 0.0 0.00 0.00 0.00 78 1013.3
20260503003156 40 295 0.0 0.0 0.00 0.00 0.00 78 1013.4
20260503002653 40 296 0.0 0.0 0.00 0.00 0.00 78 1013.7
20260503002150 41 296 0.0 0.0 0.00 0.00 0.00 76 1013.3
20260503001646 41 296 0.0 0.0 0.00 0.00 0.00 75 1013.5
20260503001143 41 288 0.0 2.0 0.00 0.00 0.00 73 1013.4
20260503000641 41 299 0.0 1.0 0.00 0.00 0.00 73 1013.2
20260503000138 41 290 0.0 1.0 0.00 0.00 0.00 73 1013.3
20260502235634 41 282 0.0 0.0 0.00 0.00 0.00 72 1013.3
20260502235133 41 294 0.0 1.0 0.00 0.00 0.00 71 1013.4
20260502234628 41 285 0.0 0.0 0.00 0.00 0.00 72 1013.4